Volver al catálogo

STARLINK-31388

ActivoComunicacionesVLEO
NORAD 59565·PAYLOAD·🇺🇸 United States

Lanzado Apr 23, 2024 desde Cape Canaveral Space Force Station

Loading…

Próximos Pases (próximas 24 horas)

TLE

ActualizadoSource: CelesTrak SupGP

Época: Sep 14, 2026, 22:18 UTC

1 59565C 24076B   26257.92965278  .00010664  00000+0  38623-3 0  2577
2 59565  43.0045  20.5074 0001654 270.9834  27.9995 15.27574114    14

Sigue STARLINK-31388 en tiempo real con AllMySat

Download on the App Store